Temp
78 78 78 77 78 78 78 78 78 77 77 78 77 77 77 77 78 77 77 77 76 76 77 76 76 76 76 76 75 76 74 73 74 76 75 74 74 73 72 71 66 65
77 77 78 78 78 79 78 78 78 78 77 77 78 78 78 77 77 77 76 77 77 77 77 77 76 76 76 76 74 75 74 73 73 76 74 73 74 73 71 70 68 65
77 77 77 77 77 77 77 77 77 77 77 77 77 77 76 77 76 77 77 77 78 77 76 76 76 76 76 76 76 75 73 72 71 75 75 76 72 72 71 73 72 73
77 77 78 77 77 77 77 77 76 77 77 76 77 77 77 76 76 76 76 77 77 76 76 76 76 76 78 78 76 75 73 71 72 75 76 76 72 72 73 77 76 74
76 77 78 78 78 78 77 76 76 76 76 76 76 77 77 76 76 76 76 76 76 76 76 76 76 76 76 76 77 76 76 76 77 76 76 76 76 77 77 77 76 75
77 79 79 78 78 77 76 77 77 76 76 76 76 77 77 76 76 76 76 76 76 76 76 77 76 76 77 77 76 76 76 76 77 77 77 76 76 77 78 77 76 75
76 77 77 78 78 77 77 77 77 77 77 77 77 76 77 76 76 77 78 77 77 77 77 76 76 75 76 76 75 75 76 76 77 77 77 77 77 75 77 76 77 77
76 77 77 78 77 77 77 77 77 76 76 77 76 76 77 78 78 76 77 77 78 77 76 77 76 77 76 76 76 75 74 76 76 77 77 77 76 76 76 77 76 77
76 77 77 76 76 76 76 77 76 76 77 76 76 76 77 78 77 77 77 78 77 76 77 77 76 76 76 76 76 76 76 76 76 77 76 76 75 76 78 78 76 76
76 76 76 76 76 76 76 76 76 76 77 76 77 77 77 77 77 78 77 77 76 76 77 76 77 75 76 78 78 78 78 77 77 77 77 78 78 79 80 79 77 76
74 75 75 75 75 76 75 75 76 76 76 77 76 76 77 76 77 78 78 78 75 77 78 77 77 78 77 77 76 77 78 78 78 78 78 78 78 78 75 78 77 76
72 73 74 74 74 74 74 75 75 76 76 76 78 77 76 76 77 78 79 79 79 79 79 79 80 78 79 78 78 77 77 77 78 78 78 79 78 78 79 78 77 77
72 72 72 72 72 72 73 75 76 76 76 77 77 76 76 76 76 77 77 78 79 78 78 78 78 79 78 77 78 78 77 77 76 76 76 77 78 78 78 78 79 79
70 71 71 71 71 71 72 73 74 75 76 76 76 76 76 77 76 76 76 78 77 78 78 77 77 78 78 78 79 77 76 76 76 75 76 76 76 77 77 78 78 78
66 70 70 70 70 70 70 70 71 73 74 76 76 76 76 77 77 77 76 77 77 76 77 76 74 72 71 68 75 77 77 76 76 77 76 76 76 77 77 77 78 78
66 67 69 68 68 67 67 66 67 70 73 74 75 75 76 76 76 76 77 76 76 75 73 71 68 64 49 42 46 70 78 78 76 76 77 77 76 76 76 77 77 78
62 63 64 63 64 64 64 63 63 65 68 71 71 73 73 74 75 75 75 75 75 72 69 66 62 54 41 39 42 41 65 74 75 76 76 76 76 75 75 76 76 78
61 63 63 62 62 63 64 63 63 63 64 66 66 68 70 72 71 72 72 72 70 70 67 64 58 44 38 41 40 39 45 68 75 75 74 75 76 76 78 77 76 76
57 58 60 60 61 62 62 62 62 62 63 62 63 66 68 68 69 68 68 69 68 66 65 62 59 41 41 40 41 40 41 51 78 75 75 75 75 75 75 76 76 75
55 57 56 56 56 60 62 62 60 60 60 62 65 66 65 65 65 64 65 65 65 63 61 59 55 43 40 40 42 39 41 47 77 73 74 74 74 74 74 74 74 75
55 56 57 57 59 60 60 60 58 58 61 63 64 64 64 64 64 63 63 64 64 63 61 57 52 39 40 40 41 41 40 48 74 72 73 73 72 72 72 71 72 72
55 55 57 59 59 59 59 59 59 60 59 60 61 62 63 63 63 64 63 63 63 63 62 59 54 39 39 40 40 41 43 69 71 72 71 72 71 71 72 73 72 72
52 54 54 55 55 57 59 59 60 60 60 61 59 59 58 59 60 61 62 61 61 62 61 59 56 44 39 40 41 38 51 71 70 72 71 70 70 70 72 71 71 70
50 53 53 54 54 54 54 56 58 59 58 58 58 57 56 57 58 59 59 59 58 57 58 58 54 45 39 40 40 38 47 67 70 71 69 69 70 70 71 72 65 51
49 50 52 52 52 52 52 52 52 51 52 54 54 55 55 56 56 56 55 56 57 56 52 56 57 50 40 39 39 40 48 64 68 70 68 67 69 70 70 71 69 59
50 50 49 51 52 53 52 50 51 50 51 50 48 49 52 53 54 52 52 51 53 55 55 56 56 56 47 38 39 41 39 54 66 65 65 64 66 67 67 69 69 66
MSLP
1016.15 1016.31 1016.59 1016.79 1016.87 1017.03 1017.27 1017.43 1017.59 1017.83 1017.91 1017.99 1018.15 1018.31 1018.47 1018.63 1018.67 1018.79 1018.87 1018.91 1019.03 1019.11 1019.07 1019.15 1019.27 1019.43 1019.51 1019.63 1019.87 1019.79 1020.19 1020.43 1020.43 1020.39 1020.63 1020.83 1020.99 1021.23 1021.55 1021.87 1022.47 1022.27
1016.19 1016.35 1016.55 1016.71 1016.91 1017.11 1017.35 1017.51 1017.75 1017.91 1018.11 1018.15 1018.15 1018.31 1018.55 1018.75 1018.87 1018.87 1018.99 1018.99 1019.07 1019.07 1019.07 1019.15 1019.27 1019.39 1019.47 1019.59 1019.83 1019.87 1020.15 1020.35 1020.51 1020.23 1020.51 1020.83 1020.87 1021.19 1021.51 1021.71 1022.11 1022.47
1016.19 1016.43 1016.63 1016.91 1017.15 1017.39 1017.51 1017.67 1017.87 1018.03 1018.23 1018.39 1018.51 1018.59 1018.83 1018.91 1019.03 1019.03 1019.03 1018.99 1018.95 1019.07 1019.23 1019.23 1019.31 1019.35 1019.43 1019.51 1019.63 1019.83 1020.19 1020.43 1020.63 1020.27 1020.35 1020.43 1020.87 1021.03 1021.27 1021.19 1021.35 1021.43
1016.19 1016.39 1016.63 1016.91 1017.15 1017.43 1017.59 1017.87 1018.11 1018.27 1018.39 1018.63 1018.71 1018.75 1018.91 1019.07 1019.11 1019.27 1019.27 1019.23 1019.19 1019.23 1019.27 1019.27 1019.35 1019.39 1019.39 1019.43 1019.63 1019.67 1020.07 1020.35 1020.39 1020.19 1020.27 1020.23 1020.75 1021.03 1020.87 1020.43 1020.67 1021.11
1016.19 1016.39 1016.55 1016.79 1016.99 1017.31 1017.63 1018.03 1018.27 1018.35 1018.51 1018.63 1018.75 1018.87 1018.99 1019.23 1019.31 1019.35 1019.39 1019.43 1019.39 1019.39 1019.43 1019.51 1019.47 1019.51 1019.47 1019.55 1019.51 1019.67 1019.63 1019.67 1019.75 1019.99 1020.11 1020.15 1020.15 1020.15 1020.27 1020.47 1020.75 1020.91
1016.03 1016.23 1016.51 1016.75 1016.99 1017.31 1017.67 1017.91 1018.11 1018.35 1018.55 1018.75 1018.87 1018.87 1019.03 1019.23 1019.39 1019.43 1019.51 1019.55 1019.51 1019.55 1019.51 1019.47 1019.59 1019.55 1019.51 1019.55 1019.59 1019.71 1019.75 1019.75 1019.79 1019.91 1019.99 1020.11 1020.15 1020.19 1020.23 1020.43 1020.63 1020.83
1016.11 1016.31 1016.63 1016.79 1016.99 1017.23 1017.51 1017.75 1017.99 1018.23 1018.47 1018.63 1018.75 1018.91 1019.03 1019.23 1019.31 1019.39 1019.43 1019.47 1019.55 1019.59 1019.55 1019.55 1019.59 1019.67 1019.59 1019.63 1019.71 1019.79 1019.79 1019.79 1019.83 1019.91 1019.99 1020.03 1020.15 1020.35 1020.31 1020.43 1020.47 1020.59
1016.11 1016.31 1016.59 1016.79 1017.11 1017.31 1017.51 1017.75 1018.07 1018.27 1018.43 1018.63 1018.87 1018.99 1019.03 1019.11 1019.27 1019.47 1019.51 1019.51 1019.55 1019.59 1019.67 1019.63 1019.63 1019.63 1019.71 1019.71 1019.79 1019.91 1019.99 1019.91 1019.95 1019.91 1019.95 1020.07 1020.23 1020.43 1020.43 1020.39 1020.43 1020.51
1016.03 1016.31 1016.59 1016.91 1017.23 1017.43 1017.63 1017.71 1017.99 1018.23 1018.35 1018.67 1018.83 1018.99 1019.03 1019.07 1019.23 1019.43 1019.47 1019.51 1019.67 1019.71 1019.71 1019.75 1019.79 1019.91 1019.87 1019.91 1019.91 1019.91 1019.95 1020.03 1019.99 1019.91 1020.03 1020.23 1020.35 1020.39 1020.35 1020.43 1020.67 1020.71
1016.07 1016.27 1016.63 1016.91 1017.27 1017.43 1017.63 1017.79 1017.95 1018.19 1018.31 1018.55 1018.71 1018.83 1019.07 1019.15 1019.23 1019.31 1019.47 1019.59 1019.83 1019.91 1019.91 1019.95 1019.99 1020.07 1019.91 1019.75 1019.79 1019.83 1019.95 1020.03 1020.03 1020.03 1020.07 1020.07 1020.11 1020.11 1020.15 1020.39 1020.63 1020.83
1016.31 1016.43 1016.67 1016.99 1017.23 1017.39 1017.67 1017.83 1018.03 1018.19 1018.35 1018.51 1018.71 1018.91 1019.03 1019.23 1019.31 1019.31 1019.47 1019.51 1019.83 1019.79 1019.83 1019.95 1020.03 1019.99 1020.07 1020.07 1020.07 1019.91 1019.87 1020.03 1019.99 1020.03 1020.07 1019.99 1020.07 1020.19 1020.31 1020.35 1020.67 1020.83
1016.51 1016.63 1016.87 1017.11 1017.35 1017.59 1017.79 1017.91 1018.07 1018.23 1018.43 1018.51 1018.63 1018.95 1019.11 1019.19 1019.31 1019.35 1019.35 1019.47 1019.59 1019.59 1019.63 1019.79 1019.83 1020.03 1019.99 1020.07 1020.19 1020.27 1020.15 1020.11 1020.11 1020.19 1020.19 1020.23 1020.35 1020.31 1020.35 1020.51 1020.63 1020.83
1016.67 1016.91 1017.15 1017.43 1017.63 1017.83 1017.91 1017.99 1018.15 1018.31 1018.39 1018.59 1018.67 1018.95 1019.15 1019.23 1019.35 1019.47 1019.43 1019.39 1019.43 1019.63 1019.79 1019.91 1019.95 1019.95 1020.11 1020.23 1020.23 1020.23 1020.31 1020.39 1020.47 1020.47 1020.51 1020.51 1020.47 1020.51 1020.51 1020.59 1020.55 1020.67
1017.11 1017.19 1017.35 1017.59 1017.79 1017.99 1018.11 1018.23 1018.31 1018.39 1018.43 1018.59 1018.75 1019.03 1019.11 1019.19 1019.39 1019.55 1019.63 1019.55 1019.67 1019.79 1019.87 1020.03 1020.19 1020.23 1020.19 1020.27 1020.23 1020.35 1020.43 1020.55 1020.51 1020.59 1020.59 1020.67 1020.71 1020.63 1020.67 1020.67 1020.71 1020.71
1017.71 1017.59 1017.63 1017.83 1017.99 1018.19 1018.35 1018.55 1018.67 1018.71 1018.71 1018.83 1018.95 1019.07 1019.11 1019.11 1019.27 1019.43 1019.67 1019.71 1019.83 1019.91 1020.07 1020.23 1020.43 1020.67 1020.99 1021.15 1020.59 1020.39 1020.47 1020.59 1020.63 1020.59 1020.63 1020.67 1020.75 1020.71 1020.75 1020.75 1020.71 1020.71
1017.71 1017.79 1017.91 1018.11 1018.31 1018.55 1018.79 1018.99 1019.11 1019.07 1019.07 1019.15 1019.19 1019.23 1019.31 1019.31 1019.43 1019.55 1019.63 1019.75 1019.91 1020.15 1020.51 1020.87 1021.27 1021.79 1022.71 1022.31 1021.83 1021.03 1020.43 1020.35 1020.63 1020.67 1020.63 1020.63 1020.67 1020.75 1020.87 1020.79 1020.75 1020.75
1017.91 1018.07 1018.31 1018.55 1018.75 1018.99 1019.23 1019.43 1019.75 1019.67 1019.59 1019.67 1019.75 1019.71 1019.59 1019.55 1019.59 1019.79 1019.83 1019.83 1020.07 1020.59 1021.07 1021.51 1022.11 1022.99 1023.31 1022.87 1022.23 1021.75 1021.19 1020.83 1020.79 1020.67 1020.63 1020.59 1020.71 1020.83 1020.87 1020.91 1020.91 1020.79
1018.23 1018.39 1018.63 1018.91 1019.11 1019.43 1019.67 1019.83 1019.95 1019.87 1019.95 1020.19 1020.31 1020.35 1020.07 1019.91 1020.03 1020.11 1020.23 1020.47 1020.75 1021.07 1021.51 1022.03 1022.83 1023.83 1023.55 1023.23 1022.83 1022.31 1021.83 1021.23 1020.83 1020.83 1020.91 1020.75 1020.71 1020.67 1020.55 1020.63 1020.79 1020.95
1018.79 1019.11 1019.27 1019.39 1019.67 1019.87 1020.03 1020.03 1020.11 1020.11 1020.23 1020.47 1020.71 1020.79 1020.51 1020.47 1020.59 1020.71 1020.91 1021.03 1021.27 1021.59 1021.99 1022.47 1023.03 1023.95 1023.63 1023.43 1023.15 1022.83 1022.39 1021.83 1020.71 1020.79 1020.75 1020.83 1020.95 1020.95 1020.91 1020.91 1020.95 1021.11
1019.23 1019.67 1019.91 1020.15 1020.43 1020.31 1020.07 1020.23 1020.39 1020.55 1020.55 1020.59 1020.59 1020.67 1020.79 1020.91 1021.07 1021.23 1021.39 1021.59 1021.87 1022.19 1022.63 1023.19 1023.63 1024.31 1024.03 1023.51 1023.11 1022.75 1022.35 1021.91 1020.91 1021.11 1020.95 1020.99 1021.07 1021.07 1021.19 1021.19 1021.27 1021.23
1019.83 1020.03 1020.11 1020.35 1020.47 1020.51 1020.47 1020.63 1020.83 1020.83 1020.67 1020.71 1020.83 1020.91 1021.07 1021.23 1021.31 1021.51 1021.71 1021.91 1022.15 1022.43 1022.87 1023.47 1024.35 1024.67 1024.19 1023.75 1023.23 1022.79 1022.31 1021.83 1021.27 1021.27 1021.15 1021.27 1021.39 1021.43 1021.47 1021.55 1021.47 1021.55
1020.43 1020.39 1020.19 1020.47 1020.63 1020.75 1020.87 1021.07 1021.07 1021.03 1021.07 1021.19 1021.19 1021.31 1021.51 1021.63 1021.71 1021.71 1021.91 1022.15 1022.31 1022.51 1022.83 1023.39 1024.23 1024.71 1024.43 1024.03 1023.59 1022.95 1022.35 1021.55 1021.47 1021.39 1021.47 1021.43 1021.51 1021.59 1021.47 1021.47 1021.51 1021.59
1021.03 1020.95 1020.99 1021.11 1021.19 1021.19 1021.27 1021.31 1021.31 1021.35 1021.39 1021.43 1021.59 1021.91 1022.27 1022.35 1022.31 1022.27 1022.31 1022.43 1022.63 1022.71 1022.87 1023.35 1023.99 1024.71 1024.63 1024.39 1023.95 1023.47 1022.51 1021.75 1021.71 1021.47 1021.67 1021.75 1021.75 1021.79 1021.55 1021.63 1021.79 1022.03
1021.55 1021.59 1021.75 1021.75 1021.79 1021.95 1022.11 1022.11 1021.95 1021.87 1021.99 1021.95 1021.99 1022.39 1022.79 1023.03 1022.91 1022.83 1022.91 1023.03 1023.11 1023.31 1023.31 1023.31 1023.99 1024.67 1024.63 1024.55 1024.23 1023.87 1023.27 1022.23 1021.83 1021.71 1021.91 1021.91 1021.75 1021.87 1021.71 1021.67 1022.23 1022.67
1022.11 1022.23 1022.31 1022.39 1022.43 1022.51 1022.55 1022.75 1022.99 1023.15 1023.15 1022.91 1022.91 1023.07 1023.35 1023.39 1023.43 1023.39 1023.55 1023.59 1023.63 1023.79 1023.99 1023.47 1023.63 1024.31 1024.75 1024.75 1024.51 1024.23 1023.71 1022.63 1022.15 1021.91 1021.99 1022.07 1021.99 1021.79 1021.87 1021.71 1021.99 1022.59
1022.79 1022.95 1023.11 1022.95 1022.83 1022.79 1023.03 1023.39 1023.55 1023.67 1023.47 1023.55 1023.75 1023.79 1023.79 1023.83 1023.91 1024.03 1024.03 1024.19 1024.23 1024.23 1024.19 1023.91 1023.75 1023.95 1024.79 1025.07 1024.95 1024.63 1024.43 1023.67 1022.59 1022.47 1022.39 1022.47 1022.35 1022.19 1022.07 1021.83 1021.87 1022.19
Wind_Speed
8 7 7 6 6 6 6 5 5 6 5 5 4 5 5 4 5 4 4 4 4 5 5 6 7 6 6 6 5 5 5 5 5 5 6 5 5 5 4 5 7 6
8 7 6 6 5 5 5 5 5 5 4 3 3 4 4 5 4 4 4 4 5 5 5 6 7 8 8 7 7 6 5 5 5 4 5 7 5 5 5 6 7 8
8 8 8 7 6 7 6 5 5 3 4 3 3 3 3 3 4 3 4 4 5 6 6 6 6 6 6 6 7 6 5 6 4 5 6 6 5 4 5 7 7 8
9 8 7 7 7 7 6 6 5 4 4 4 3 3 3 3 4 4 3 3 4 5 6 6 6 6 6 6 7 6 8 8 9 7 6 5 6 8 7 5 5 6
9 8 8 8 8 8 7 6 6 5 5 4 4 3 4 4 4 4 3 3 3 4 5 5 5 5 4 5 6 6 6 6 5 6 6 5 5 5 5 6 6 7
9 9 9 8 9 9 8 8 7 6 6 5 5 4 4 4 4 4 3 3 3 3 4 5 5 5 5 5 5 5 6 6 6 7 7 6 6 5 4 6 7 7
10 9 9 9 9 10 9 8 7 7 6 5 5 4 4 4 4 3 2 3 4 4 5 5 5 5 4 4 5 5 5 5 5 6 6 5 5 5 5 6 7 7
10 9 9 8 9 9 9 9 8 7 6 6 5 5 4 4 4 2 2 4 4 4 5 5 5 5 5 4 5 5 5 3 4 5 5 5 4 6 6 4 5 6
9 9 9 9 9 8 9 9 8 7 7 6 6 5 4 4 4 4 4 4 4 4 5 4 4 4 4 4 4 4 4 4 3 4 4 5 6 6 6 5 5 4
9 9 9 9 9 8 10 9 8 7 7 6 6 5 5 4 4 4 4 4 5 4 4 4 5 5 5 5 5 5 5 5 4 4 5 6 6 6 6 5 4 5
8 8 9 9 9 8 9 9 8 8 7 7 6 5 6 5 4 4 5 5 5 6 6 5 4 4 5 4 4 4 5 4 5 5 4 5 4 4 3 4 5 4
8 8 8 8 8 8 8 8 8 8 7 6 6 6 6 5 5 4 5 6 5 5 5 5 5 4 5 5 6 5 4 4 3 4 4 4 4 4 4 3 4 5
7 8 8 8 7 7 6 7 8 7 7 6 6 6 6 5 5 4 4 5 5 4 4 4 4 4 4 4 5 5 4 5 4 4 4 3 3 3 3 3 3 4
7 7 8 7 7 7 7 6 7 6 6 6 6 6 6 6 5 5 4 3 5 4 3 3 3 4 4 5 5 4 4 4 5 5 5 4 3 3 3 3 3 4
5 7 7 9 8 8 8 8 6 5 5 6 5 5 4 5 5 6 5 5 5 4 4 2 3 6 6 7 3 5 4 4 5 6 5 6 5 4 4 4 4 4
8 8 8 9 9 9 9 7 6 5 4 4 4 5 5 5 5 4 4 4 5 5 5 5 5 5 9 13 10 7 1 3 4 5 6 5 5 5 4 4 4 4
7 8 8 8 8 8 7 7 6 4 5 4 4 3 4 5 4 4 3 3 5 6 7 6 5 6 13 11 11 11 7 0 2 3 3 4 4 4 4 5 4 4
8 9 9 9 8 8 7 6 6 6 7 6 6 5 5 6 6 5 6 6 7 8 9 8 7 11 11 12 12 12 9 4 2 2 3 2 2 3 5 5 5 4
10 10 10 10 8 7 6 7 7 7 8 8 8 5 6 8 9 9 9 8 9 9 9 9 8 12 12 11 10 11 12 11 3 2 3 3 2 2 2 1 1 2
11 10 9 9 7 7 8 8 8 8 7 7 7 8 8 9 10 11 9 9 9 9 9 9 9 12 12 11 10 10 10 10 2 1 1 1 1 0 0 1 1 2
11 10 11 10 9 8 8 8 8 7 8 7 7 8 8 8 8 10 9 9 9 8 8 9 8 13 13 13 12 12 11 10 2 2 0 1 1 2 1 2 1 1
9 9 11 10 10 9 9 9 9 9 9 8 8 8 7 7 8 8 9 9 8 8 8 8 9 13 13 14 14 13 14 3 3 1 2 2 2 2 2 1 1 2
9 9 10 9 9 10 9 9 9 9 9 8 9 8 7 7 7 7 7 8 8 7 7 7 8 10 11 13 14 15 11 3 2 1 2 2 2 2 1 1 2 5
8 9 9 9 9 9 8 7 7 7 7 6 8 8 7 6 5 6 7 7 8 7 5 6 6 8 10 11 13 14 12 4 3 1 1 1 1 0 2 1 6 5
8 8 7 7 8 8 7 7 7 6 5 5 6 6 5 4 4 5 5 5 6 7 7 6 5 7 10 10 11 13 11 5 4 3 2 2 3 2 1 3 2 6
8 9 8 8 7 9 9 6 5 4 4 6 6 4 4 4 3 4 5 5 4 4 3 5 5 5 8 8 9 10 12 8 3 3 3 3 3 4 5 3 3 2
Wind_Direction
176 180 179 177 174 164 162 154 147 152 151 152 151 149 151 141 146 160 163 170 171 179 174 170 164 173 174 171 181 189 173 191 193 199 198 199 205 204 198 189 175 212
176 175 175 172 161 151 143 136 134 140 134 140 131 134 126 141 143 160 165 176 181 178 170 167 168 170 179 177 174 176 182 186 203 195 202 198 199 191 204 201 196 180
175 173 166 161 149 136 131 129 129 128 134 121 112 138 138 143 149 164 162 179 177 167 173 169 168 172 177 175 174 177 172 173 207 213 209 197 185 185 209 197 209 169
171 164 156 147 142 139 137 138 136 137 134 147 149 129 142 149 156 148 147 164 173 173 176 177 178 178 186 179 184 181 173 182 193 198 204 186 190 185 202 186 182 166
162 157 157 154 148 148 152 154 153 151 151 136 132 139 142 154 162 155 153 156 179 176 182 186 186 183 190 190 191 190 183 183 171 192 197 198 194 181 168 181 177 184
163 162 163 159 156 158 164 165 161 160 152 149 141 145 140 155 164 165 162 165 178 184 184 190 189 187 197 188 188 185 183 182 173 194 197 193 184 183 181 181 178 182
164 165 165 167 166 169 168 164 162 163 159 153 151 148 143 157 166 167 162 178 174 184 179 180 179 182 187 185 183 177 181 184 179 196 197 188 180 181 181 184 179 181
162 166 171 171 173 172 170 161 161 161 156 159 157 149 168 157 160 146 168 182 175 167 173 173 177 172 173 178 177 171 168 169 182 183 190 166 189 177 167 174 170 177
163 169 170 172 172 172 169 165 160 160 164 162 162 155 165 166 145 159 163 171 166 163 156 148 151 152 149 161 158 165 159 154 175 181 174 166 163 160 165 153 162 169
160 162 167 170 171 171 165 161 160 160 162 167 158 165 157 143 150 160 153 161 170 159 152 155 146 158 154 158 151 149 153 153 159 154 156 162 159 162 146 152 164 166
144 158 162 162 166 165 161 159 159 158 160 160 154 161 152 154 158 162 164 158 168 177 171 163 158 161 165 166 154 163 147 145 153 141 147 148 140 124 130 138 137 151
137 142 145 146 147 149 155 160 158 157 156 157 160 153 152 161 161 170 179 163 168 172 171 173 167 162 167 169 164 170 162 151 145 148 151 140 130 146 135 120 139 142
131 125 123 121 120 121 134 152 153 150 156 150 150 150 153 153 154 157 176 175 165 155 158 165 164 166 148 159 160 159 162 165 158 156 153 138 150 144 147 138 152 139
107 116 116 114 115 113 111 119 133 143 140 136 146 149 148 140 140 148 150 165 147 166 140 140 157 178 170 173 178 161 167 169 173 180 170 162 158 161 147 163 152 152
74 99 106 110 109 104 99 92 94 109 129 139 150 145 139 132 139 140 153 155 154 162 152 107 41 29 26 355 340 180 180 183 188 185 186 177 176 166 157 164 171 148
122 109 106 103 99 95 91 81 63 83 112 132 144 144 137 126 128 131 148 152 142 111 83 63 47 43 359 339 335 335 212 178 181 194 195 177 188 160 165 167 166 163
102 96 99 92 87 86 83 85 92 77 82 84 86 101 112 116 118 123 118 123 111 96 79 66 49 18 348 342 338 339 329 92 191 183 195 183 182 179 178 179 179 179
88 92 88 87 88 90 96 92 91 92 92 82 68 57 71 86 95 95 95 87 85 85 76 65 59 14 354 355 345 335 326 309 174 160 169 196 194 193 195 179 184 168
81 78 81 81 84 92 93 95 91 89 90 92 90 88 82 78 79 80 76 77 77 76 72 62 53 16 3 3 353 343 332 315 239 135 194 160 158 219 355 54 104 150
83 85 87 83 77 85 96 91 85 82 83 85 96 90 82 84 83 80 78 75 75 76 72 57 43 7 3 3 1 346 332 316 312 50 3 82 98 93 200 216 232 241
85 90 91 93 98 94 87 85 84 84 81 80 79 80 81 84 88 86 79 80 80 81 76 63 40 8 8 4 4 351 338 303 33 330 40 82 63 54 11 30 338 325
87 89 88 89 88 87 84 84 84 82 80 78 78 76 77 81 83 85 87 84 83 84 83 71 50 22 9 7 359 355 324 315 35 18 31 33 43 44 337 17 15 326
61 67 77 81 81 82 82 81 81 79 79 78 79 73 67 63 68 75 80 84 80 78 82 79 60 31 18 10 3 355 338 31 3 24 44 34 24 360 337 16 37 12
62 65 66 70 75 76 74 67 63 66 68 68 78 81 74 65 65 68 66 65 70 70 63 85 76 50 27 16 5 1 339 341 344 357 360 345 311 305 313 272 93 68
52 66 78 80 80 76 70 66 62 57 45 56 74 75 69 63 59 73 75 67 61 64 43 64 80 75 45 22 10 5 352 334 340 332 316 353 319 286 278 290 139 132
66 68 62 64 75 83 74 71 83 87 83 78 66 68 84 80 71 74 74 65 54 41 48 50 57 66 63 30 21 7 1 337 330 341 342 332 312 312 299 279 280 147